User: anonymous   Login
Location: Unspecified
(0.0000°N, 0.0000°E)
Time: 18:15:24
(UTC+02:00)
Language:

Cosmos 2263 Rocket - Orbit

View from above orbital plane
View from above orbital plane
View from above satellite
View from above satellite

Ground track
Ground track

The orbit data is extracted from the following two-line orbital elements,

1 22803U 93059B   17292.41773072  .00000128  00000-0  87798-4 0  9997
2 22803  70.9916 347.6560 0018079 203.5926 156.4370 14.16780223245878
Epoch (UTC): 19 October 2017 10:01:31
Eccentricity: 0.0018079
inclination: 70.9916°
perigee height: 823 km
apogee height: 849 km
right ascension of ascending node: 347.6560°
argument of perigee: 203.5926°
revolutions per day: 14.16780223
mean anomaly at epoch: 156.4370°
orbit number at epoch: 24587

The dashed part of the orbit path shows where the satellite is in the earth's shadow,  

DLR